Weather History for KAAT - October, 2014

Change the Weather History Date:

Tuesday, October 28, 2014

  Actual Average Record
Temperature  
Mean Temperature 46 °F 43 °F  
Max Temperature 67 °F 59 °F 82 °F (1968)
Min Temperature 25 °F 26 °F 13 °F (1948)
Degree Days  
Heating Degree Days 19 22  
Month to date heating degree days 367 497  
Since 1 July heating degree days 508 874  
Cooling Degree Days 0 0  
Month to date cooling degree days 0 0  
Year to date cooling degree days 380 156  
Moisture  
Dew Point 33 °F    
Average Humidity 65    
Maximum Humidity 92    
Minimum Humidity 37    
Precipitation  
Precipitation 0.00 in 0.05 in 0.86 in (2004)
Month to date precipitation 1.07 0.86  
Year to date precipitation 7.71 10.52  
Sea Level Pressure  
Sea Level Pressure 30.17 in    
Wind  
Wind Speed 3 mph (West)    
Max Wind Speed 16 mph    
Max Gust Speed 19 mph    
Visibility 9 miles    
Events      
T = Trace of Precipitation, MM = Missing Value Source: NWS Daily Summary

Daily Weather History Graph

Daily Weather History Graph

Search for Another Location

Airport or City:

Trip Planner

Search our weather history database for the weather conditions in past years. The results will help you decide how hot, cold, wet, or windy it might be!

Date:

Astronomy

Oct. 28, 2014 Rise Set
Actual Time 7:29 AM PDT 6:02 PM PDT
Civil Twilight 7:00 AM PDT 6:30 PM PDT
Nautical Twilight 6:28 AM PDT 7:03 PM PDT
Astronomical Twilight 5:56 AM PDT 7:35 PM PDT
Moon 12:04 PM PDT (10/28) 10:12 PM PDT (10/28)
Length of Visible Light 11h 29m
Length of Day
10h 32m
Waxing Crescent, 25% of the Moon is Illuminated
Oct 28
Waxing Crescent
Oct 30
First Quarter
Nov 6
Full
Nov 14
Last Quarter
Nov 22
New

Hourly Weather History & Observations

Time (PDT) Temp. Windchill Dew Point Humidity Pressure Visibility Wind Dir Wind Speed Gust Speed Precip Events Conditions
12:55 AM 30.0 °F - 28.0 °F 92% 30.17 in 10.0 mi Calm Calm - N/A   Clear
1:55 AM 30.0 °F - 27.0 °F 88% 30.17 in 10.0 mi Calm Calm - N/A   Clear
2:55 AM 28.9 °F - 26.1 °F 89% 30.17 in 10.0 mi Calm Calm - N/A   Clear
3:55 AM 28.9 °F - 27.0 °F 92% 30.16 in 10.0 mi Calm Calm - N/A   Clear
4:55 AM 27.0 °F - 24.1 °F 89% 30.17 in 10.0 mi Calm Calm - N/A   Clear
5:55 AM 28.0 °F - 25.0 °F 88% 30.18 in 7.0 mi Calm Calm - N/A   Clear
6:55 AM 25.0 °F - 23.0 °F 92% 30.21 in 10.0 mi Calm Calm - N/A   Clear
7:55 AM 27.0 °F - 25.0 °F 92% 30.23 in 5.0 mi Calm Calm - N/A   Clear
8:55 AM 34.0 °F - 30.0 °F 85% 30.22 in 10.0 mi Calm Calm - N/A   Clear
9:55 AM 43.0 °F - 30.9 °F 62% 30.22 in 10.0 mi Calm Calm - N/A   Clear
10:55 AM 48.9 °F - 33.1 °F 54% 30.20 in 10.0 mi NNE 4.6 mph - N/A   Clear
11:55 AM 55.9 °F - 34.0 °F 44% 30.17 in 10.0 mi Variable 3.5 mph - N/A   Clear
12:55 PM 63.0 °F - 37.0 °F 38% 30.12 in 10.0 mi Variable 3.5 mph - N/A   Clear
1:55 PM 64.9 °F - 37.9 °F 37% 30.10 in 10.0 mi Variable 4.6 mph - N/A   Clear
2:55 PM 64.9 °F - 39.0 °F 39% 30.10 in 10.0 mi WSW 5.8 mph - N/A   Mostly Cloudy
3:55 PM 64.0 °F - 39.9 °F 41% 30.10 in 10.0 mi West 9.2 mph - N/A   Overcast
4:55 PM 62.1 °F - 41.0 °F 46% 30.12 in 10.0 mi West 12.7 mph - N/A   Overcast
5:55 PM 60.1 °F - 36.0 °F 41% 30.14 in 10.0 mi West 8.1 mph - N/A   Mostly Cloudy
6:55 PM 51.1 °F - 36.0 °F 56% 30.18 in 10.0 mi WSW 6.9 mph - N/A   Partly Cloudy
7:55 PM 51.1 °F - 35.1 °F 54% 30.19 in 10.0 mi Calm Calm - N/A   Clear
8:55 PM 46.9 °F - 36.0 °F 66% 30.20 in 10.0 mi Calm Calm - N/A   Scattered Clouds
9:55 PM 45.0 °F 43.5 °F 37.0 °F 74% 30.19 in 5.0 mi ESE 3.5 mph - N/A   Haze
10:55 PM 42.1 °F - 36.0 °F 79% 30.18 in 9.0 mi Calm Calm - N/A   Mostly Cloudy
11:55 PM 43.0 °F - 37.9 °F 82% 30.16 in 10.0 mi Calm Calm - N/A   Overcast